Newport News, VA

11:02 AM EST on December 08, 2019 (GMT -0500)
Newport News-Williamsburg International

Weather History for KPHF - July, 2019

Change the Weather History Date:

Monday, July 22, 2019

  Actual Average Record
Temperature  
Mean Temperature 86 °F -  
Max Temperature 97 °F 88 °F 104 °F (1952)
Min Temperature 75 °F 70 °F 50 °F (2000)
Cooling Degree Days 22    
Growing Degree Days 36 (Base 50)    
Moisture  
Dew Point 71 °F    
Average Humidity 63    
Maximum Humidity 85    
Minimum Humidity 43    
Precipitation  
Precipitation 0.04 in - - ()
Sea Level Pressure  
Sea Level Pressure 29.87 in    
Wind  
Wind Speed 11 mph (SW)    
Max Wind Speed 22 mph    
Max Gust Speed 28 mph    
Visibility 10 miles    
Events Rain , Thunderstorm    
Averages and records for this station are not official NWS values.
T = Trace of Precipitation, MM = Missing Value Source: NWS Daily Summary

Daily Weather History Graph

Daily Weather History Graph

Search for Another Location

Airport or City:

Astronomy

Jul. 22, 2019 Rise Set
Actual Time 6:02 AM EDT 8:21 PM EDT
Civil Twilight 5:33 AM EDT 8:51 PM EDT
Nautical Twilight 4:56 AM EDT 9:27 PM EDT
Astronomical Twilight 4:16 AM EDT 10:07 PM EDT
Moon 11:48 PM EDT (7/22) 11:11 AM EDT (7/22)
Length of Visible Light 15h 18m
Length of Day
14h 18m
Waning Gibbous, 72% of the Moon is Illuminated
Jul 22
Waning Gibbous
Jul 24
Last Quarter
Jul 31
New
Aug 7
First Quarter
Aug 15
Full

Hourly Weather History & Observations

Time (EDT) Temp. Heat Index Dew Point Humidity Pressure Visibility Wind Dir Wind Speed Gust Speed Precip Events Conditions
12:54 AM 82.0 °F 86.7 °F 72.0 °F 71% 29.91 in 10.0 mi WSW 5.8 mph - N/A   Clear
1:54 AM 81.0 °F 84.9 °F 71.1 °F 72% 29.91 in 10.0 mi SW 4.6 mph - N/A   Clear
2:54 AM 80.1 °F 83.8 °F 72.0 °F 76% 29.91 in 10.0 mi SSW 4.6 mph - N/A   Clear
3:54 AM 79.0 °F - 72.0 °F 79% 29.91 in 10.0 mi SW 5.8 mph - N/A   Clear
4:54 AM 80.1 °F 83.8 °F 72.0 °F 76% 29.91 in 10.0 mi SW 8.1 mph - N/A   Clear
5:54 AM 80.1 °F 83.6 °F 71.1 °F 74% 29.90 in 10.0 mi SW 8.1 mph - N/A   Clear
6:54 AM 82.0 °F 86.3 °F 71.1 °F 69% 29.91 in 10.0 mi SW 10.4 mph - N/A   Clear
7:54 AM 82.9 °F 87.5 °F 71.1 °F 67% 29.91 in 10.0 mi SW 10.4 mph 20.7 mph N/A   Clear
8:54 AM 84.9 °F 90.7 °F 72.0 °F 65% 29.91 in 10.0 mi SW 13.8 mph - N/A   Clear
9:54 AM 88.0 °F 95.6 °F 73.0 °F 61% 29.90 in 10.0 mi SSW 15.0 mph - N/A   Clear
10:54 AM 91.0 °F 98.2 °F 72.0 °F 53% 29.90 in 10.0 mi WSW 15.0 mph - N/A   Clear
11:54 AM 91.9 °F 99.5 °F 72.0 °F 52% 29.89 in 10.0 mi WSW 21.9 mph 27.6 mph N/A   Clear
12:54 PM 93.9 °F 102.1 °F 72.0 °F 49% 29.88 in 10.0 mi SW 18.4 mph 26.5 mph N/A   Clear
1:54 PM 95.0 °F 103.2 °F 72.0 °F 47% 29.86 in 10.0 mi WSW 20.7 mph 27.6 mph N/A   Clear
2:54 PM 96.1 °F 102.9 °F 70.0 °F 43% 29.85 in 10.0 mi WSW 19.6 mph 27.6 mph N/A   Clear
3:54 PM 96.1 °F 103.5 °F 71.1 °F 44% 29.83 in 10.0 mi SW 16.1 mph - N/A   Partly Cloudy
4:54 PM 96.1 °F 102.9 °F 70.0 °F 43% 29.81 in 10.0 mi SW 19.6 mph 27.6 mph N/A   Clear
5:54 PM 93.0 °F 97.9 °F 69.1 °F 45% 29.81 in 10.0 mi SW 13.8 mph 25.3 mph N/A   Clear
6:54 PM 93.0 °F 97.9 °F 69.1 °F 45% 29.81 in 10.0 mi SW 16.1 mph 24.2 mph N/A   Clear
7:54 PM 91.0 °F 96.6 °F 70.0 °F 50% 29.83 in 10.0 mi SW 12.7 mph - N/A   Partly Cloudy
8:54 PM 89.1 °F 95.0 °F 71.1 °F 55% 29.84 in 10.0 mi SW 11.5 mph - N/A   Partly Cloudy
9:54 PM 86.0 °F 89.4 °F 68.0 °F 55% 29.85 in 10.0 mi SSW 17.3 mph - N/A   Clear
10:29 PM 84.0 °F 87.0 °F 68.0 °F 58% 29.86 in 10.0 mi SW 18.4 mph 27.6 mph 0.00 in Rain , Thunderstorm Light Rain
10:54 PM 77.0 °F - 69.1 °F 76% 29.86 in 6.0 mi West 10.4 mph 21.9 mph 0.02 in Rain , Thunderstorm Light Thunderstorms and Rain
11:06 PM 77.0 °F - 70.0 °F 79% 29.86 in 10.0 mi SW 5.8 mph - 0.00 in   Mostly Cloudy
11:14 PM 77.0 °F - 71.1 °F 82% 29.86 in 10.0 mi WSW 3.5 mph - 0.00 in Thunderstorm Mostly Cloudy
11:39 PM 77.0 °F - 72.0 °F 84% 29.89 in 8.0 mi WSW 15.0 mph 20.7 mph 0.01 in Rain Rain
11:54 PM 75.9 °F - 71.1 °F 85% 29.88 in 8.0 mi WSW 9.2 mph 20.7 mph 0.02 in Rain Light Rain